7 * 24
多渠道服务支持
STARLINK-35397是美国太空探索技术公司(SpaceX)于2025年9月29日发射的第二代星链(Starlink)宽带互联网卫星,运行于低地球轨道,属于第二代星链星座的组网卫星。该卫星配备增强型相控阵天线与激光星间链路,单星容量超100Gbps,可提供高速低延迟的宽带互联网服务,为全球偏远地区提供网络接入,也支持应急通信、移动连接等场景。星链星座通过规模化部署,持续扩展全球覆盖能力,目前在轨卫星已超7800颗,该卫星的入轨进一步完善了星链的全球网络架构。
美国
(US)
| 数据来源 | 国际轨道数据 |
| 星历时间: | 2026-06-13T14:50:56+0800 5小时前 查看轨道信息 |
| 半长轴: | 6840.831km |
| 偏心率: | 0.0000899 |
| 轨道倾角: | 53.160° |
| 近地点辐角 | 65.865° |
| 升交点赤经 | 3.316° |
| 平近点角 | 294.245° |
| 近地点: | 462.079km |
| 远地点: | 463.309km |
| 周期: | 93.848分钟 |
| 每日圈数: | 15.344032 |